FW8647 Weather Reports


time (UTC)temp
F
wind
direction
speed
knots
gust
knots
rain 1hr
in
rain 24hr
in
rain mn
in
humidity
%
barometer
mb
20260502192638 39 293 0.0 1.7 0.00 0.00 0.00 68 1018.9
20260502191633 39 335 0.9 2.6 0.00 0.00 0.00 67 1019.0
20260502190628 39 303 1.7 2.6 0.00 0.00 0.00 66 1019.0
20260502185626 39 275 6.1 7.8 0.00 0.00 0.00 68 1019.3
20260502184625 40 325 11.3 13.9 0.00 0.00 0.00 65 1019.0
20260502183623 40 304 4.3 6.1 0.00 0.00 0.00 61 1018.9
20260502182621 40 221 4.3 6.1 0.00 0.00 0.00 60 1018.8
20260502181620 40 297 6.1 7.8 0.00 0.00 0.00 61 1019.3
20260502180615 41 269 5.2 7.0 0.00 0.00 0.00 61 1019.1
20260502163602 40 343 8.7 11.3 0.00 0.00 0.00 63 1019.1
20260502162601 40 338 12.2 13.9 0.00 0.00 0.00 62 1018.9
20260502161601 40 329 11.3 13.0 0.00 0.00 0.00 65 1018.8
20260502160557 40 345 10.4 12.2 0.00 0.00 0.00 66 1018.9
20260502151524 39 325 12.2 14.8 0.00 0.00 0.00 66 1019.3
20260502150519 40 353 10.4 13.9 0.00 0.00 0.00 63 1018.7
20260502130457 37 327 8.7 11.3 0.00 0.00 0.00 71 1019.5
20260502123451 36 335 9.6 11.3 0.00 0.00 0.00 76 1019.6
20260502122450 36 281 8.7 13.0 0.00 0.00 0.00 76 1019.4
20260502121445 35 316 9.6 11.3 0.00 0.00 0.00 76 1019.6
20260502120444 35 323 7.0 7.8 0.00 0.00 0.00 76 1019.5
20260502115444 35 331 8.7 12.2 0.00 0.00 0.00 76 1019.6
20260502114443 34 301 7.8 8.7 0.00 0.00 0.00 77 1019.1
20260502113443 34 280 5.2 7.0 0.00 0.00 0.00 77 1019.5
20260502112439 34 276 1.7 2.6 0.00 0.00 0.00 76 1019.5
20260502111439 34 341 4.3 7.8 0.00 0.00 0.00 76 1019.1
20260502110434 34 285 1.7 2.6 0.00 0.00 0.00 78 1018.9
20260502105434 34 259 0.9 1.7 0.00 0.00 0.00 80 1018.9
20260502104429 33 261 0.0 0.9 0.00 0.00 0.00 82 1019.1
20260502103424 0 0.0 0.0 0.00 0.00 0.00 1018.7
20260502102423 0 0.0 0.0 0.00 0.00 0.00 1019.1
20260502101419 33 202 0.0 0.9 0.00 0.00 0.00 84 1018.7
20260502100416 33 202 0.9 1.7 0.00 0.00 0.00 84 1018.8
20260502091401 33 202 0.0 0.0 0.00 0.00 0.00 83 1018.2
20260502090401 33 202 0.0 0.0 0.00 0.00 0.00 83 1018.4
20260502071336 33 202 0.0 0.0 0.00 0.00 0.00 81 1018.6
20260502070332 33 202 0.0 0.0 0.00 0.00 0.00 80 1018.3
20260502065329 33 202 0.0 0.0 0.00 0.00 0.00 79 1018.4
20260502064324 33 202 0.0 0.0 0.00 0.00 0.00 78 1018.4
20260502063319 34 202 0.0 0.0 0.00 0.00 0.00 78 1018.4
20260502062319 34 201 2.6 6.1 0.00 0.00 0.00 78 1018.4
20260502061315 33 201 0.0 0.0 0.00 0.00 0.00 78 1018.6
20260502060312 33 201 0.0 0.0 0.00 0.00 0.00 77 1018.7
20260502055308 33 201 0.0 0.0 0.00 0.00 0.00 77 1019.0
20260502054304 33 201 0.0 0.0 0.00 0.00 0.00 77 1018.7
20260502053304 34 201 0.0 0.0 0.00 0.00 0.00 76 1018.8
20260502052300 33 201 0.0 0.0 0.00 0.00 0.00 76 1018.9
20260502051256 33 202 0.9 1.7 0.00 0.00 0.00 76 1018.8
20260502050254 33 209 0.0 0.0 0.00 0.00 0.00 75 1018.7
20260502045254 33 224 0.9 2.6 0.00 0.00 0.00 73 1018.5
20260502044253 34 285 1.7 1.7 0.00 0.00 0.00 73 1018.6
20260502043248 33 269 0.0 0.0 0.00 0.00 0.00 73 1018.7
20260502042245 33 257 0.0 0.0 0.00 0.00 0.00 73 1018.8
20260502041240 33 261 2.6 2.6 0.00 0.00 0.00 72 1018.6
20260502040239 34 255 2.6 2.6 0.00 0.00 0.00 71 1018.2
20260502035238 34 221 2.6 2.6 0.00 0.00 0.00 70 1018.4
20260502034233 34 277 2.6 2.6 0.00 0.00 0.00 70 1018.4
20260502033229 34 210 1.7 1.7 0.00 0.00 0.00 68 1018.4
20260502032227 34 267 1.7 1.7 0.00 0.00 0.00 68 1018.2
20260502031223 34 213 0.0 0.0 0.00 0.00 0.00 69 1018.1
20260502030219 35 293 2.6 2.6 0.00 0.00 0.00 68 1018.2
20260502025219 35 229 0.0 0.0 0.00 0.00 0.00 67 1018.2
20260502024215 35 267 0.0 0.0 0.00 0.00 0.00 66 1018.0
20260502023215 36 290 0.0 0.0 0.00 0.00 0.00 65 1018.0
20260502022215 36 259 0.0 0.0 0.00 0.00 0.00 64 1018.0
20260502021210 36 323 2.6 4.3 0.00 0.00 0.00 63 1018.0
20260502020210 37 335 3.5 4.3 0.00 0.00 0.00 63 1017.8
20260502015209 37 337 4.3 5.2 0.00 0.00 0.00 63 1017.8
20260502014204 37 338 4.3 5.2 0.00 0.00 0.00 61 1017.6
20260502013201 37 330 0.9 1.7 0.00 0.00 0.00 61 1017.8
20260502012157 38 341 6.1 7.8 0.00 0.00 0.00 59 1017.7
20260502011155 38 330 0.9 1.7 0.00 0.00 0.00 58 1017.6
20260502010154 39 329 1.7 1.7 0.00 0.00 0.00 58 1017.5
20260502005150 39 323 3.5 6.1 0.00 0.00 0.00 59 1017.4
20260502004148 40 355 7.8 7.8 0.00 0.00 0.00 59 1017.3
20260502003143 40 323 3.5 7.8 0.00 0.00 0.00 59 1017.0
20260502002143 41 334 7.8 9.6 0.00 0.00 0.00 57 1017.1
20260502001143 41 11 4.3 5.2 0.00 0.00 0.00 55 1016.5
20260502000139 42 11 11.3 14.8 0.00 0.00 0.00 53 1016.6
20260501235136 42 303 8.7 9.6 0.00 0.00 0.00 51 1016.8
20260501234135 43 312 7.8 8.7 0.00 0.00 0.00 50 1016.5
20260501233130 43 326 8.7 12.2 0.00 0.00 0.00 49 1016.7
20260501232129 43 333 4.3 7.0 0.00 0.00 0.00 49 1016.5
20260501231125 44 322 7.8 12.2 0.00 0.00 0.00 48 1016.5
20260501230121 44 304 7.8 11.3 0.00 0.00 0.00 48 1016.3
20260501225120 44 336 10.4 13.0 0.00 0.00 0.00 49 1016.3
20260501224120 44 326 10.4 13.0 0.00 0.00 0.00 48 1015.9
20260501223119 44 349 11.3 13.0 0.00 0.00 0.00 49 1016.2
20260501222118 44 266 10.4 13.9 0.00 0.00 0.00 49 1016.2
20260501221118 44 276 10.4 13.9 0.00 0.00 0.00 49 1015.9
20260501220118 44 303 9.6 12.2 0.00 0.00 0.00 50 1015.6
20260501215116 45 327 7.8 12.2 0.00 0.00 0.00 48 1015.6
20260501214113 45 310 7.8 9.6 0.00 0.00 0.00 51 1015.7
20260501213112 46 276 11.3 14.8 0.00 0.00 0.00 50 1015.3
20260501212111 47 3 9.6 11.3 0.00 0.00 0.00 48 1015.2
20260501211111 46 341 10.4 13.0 0.00 0.00 0.00 49 1015.4
20260501210110 47 333 10.4 12.2 0.00 0.00 0.00 49 1015.1
20260501205110 47 315 10.4 17.4 0.00 0.00 0.00 46 1014.9
20260501204108 46 1 13.0 15.6 0.00 0.00 0.00 49 1015.1
20260501203103 47 287 6.1 8.7 0.00 0.00 0.00 48 1015.2
20260501202102 47 321 7.8 12.2 0.00 0.00 0.00 48 1015.1
20260501201101 47 4 9.6 12.2 0.00 0.00 0.00 48 1014.9
20260501200056 47 341 5.2 7.0 0.00 0.00 0.00 47 1015.0
20260501195055 46 268 7.8 11.3 0.00 0.00 0.00 47 1014.7
20260501194052 46 302 7.0 8.7 0.00 0.00 0.00 47 1014.7
20260501193049 46 324 5.2 7.0 0.00 0.00 0.00 48 1015.0